Starlink 32406

operational
NORAD ID: 61545 Int'l Des: 2024-184 Owner: SPXS Country: US Constellation: starlink
LEOCIRCULAR

关于 Starlink 32406

正在加载描述...

实时位置

正在加载3D地球...

即将过境

高度历史

Altitude vs Time

uPlot chart will show altitude changes over time

两行轨道根数

1 61545U 24184P 25353.53464417 -.00000162 00000-0 66440-5 0 9997
2 61545 53.1610 26.3401 0000942 101.6197 258.4910 15.30184215 66231
Epoch: Dec 19, 2025 • Age: 13 hours

当前状态

高度 475.2 km
速度 7.63 km/s
星下点 8.44°N, 76.86°E
发射日期 Oct 15, 2024
运行时间 1.1 years
类型 internet

技术详情

分类 Payload
质量 730.00 kg
干质量 700.00 kg
总质量 730.00 kg
长度 0.30 m
直径 4.10 m
跨度 29.00 m
形状 Box + pan
制造商 SPXS
平台类型 Starlink V2M
阶段状态 In Orbit
所有者/国家 SPXS/US

大型星座

Loading constellations...